Location: Acts Church of Fort Worth
(32.6786°N, 97.2668°W)
Time: 23:04:05
(UTC+00:00)

Lacrosse 4 Rocket - Pass Details

Date: 18 January 2026
Orbit: 513 x 564 km, 68.0° (Epoch: 13 February)

Event Time Altitude Azimuth Distance (km) Brightness Sun altitude
Exits shadow 11:20:08 42° 98° (E) 758 2.4 -27.2°
Drops below altitude 10° 11:23:35 10° 39° (NE) 1,755 4.2 -26.4°
Sets 11:25:49 0° 32° (NNE) 2,640 5.1 -26.0°
